| time (UTC) | temp C | wind direction | speed KPH | gust KPH | rain 1hr cm | rain 24hr cm | rain mn cm | humidity % | barometer mb |
| 20260906012359 | 24 | 121 | 0.0 | 3.2 | 0.00 | 0.00 | 0.00 | 61 | 1022.3 |
| 20260906011356 | 24 | 121 | 0.0 | 3.2 | 0.00 | 0.00 | 0.00 | 61 | 1022.2 |
| 20260906010357 | 24 | 121 | 0.0 | 1.6 | 0.00 | 0.00 | 0.00 | 61 | 1022.3 |
| 20260906005347 | 24 | 121 | 0.0 | 1.6 | 0.00 | 0.00 | 0.00 | 61 | 1022.3 |
| 20260906004350 | 24 | 121 | 1.6 | 3.2 | 0.00 | 0.00 | 0.00 | 62 | 1022.3 |
| 20260906003350 | 25 | 121 | 0.0 | 0.0 | 0.00 | 0.00 | 0.00 | 64 | 1022.4 |
| 20260906002343 | 25 | 121 | 0.0 | 0.0 | 0.00 | 0.00 | 0.00 | 65 | 1022.6 |
| 20260906001346 | 25 | 121 | 0.0 | 0.0 | 0.00 | 0.00 | 0.00 | 64 | 1022.7 |
| 20260906000348 | 25 | 121 | 0.0 | 0.0 | 0.00 | 0.00 | 0.00 | 64 | 1022.6 |
| 20260905235348 | 25 | 121 | 0.0 | 0.0 | 0.00 | 0.00 | 0.00 | 63 | 1022.6 |
| 20260905234347 | 25 | 121 | 0.0 | 3.2 | 0.00 | 0.00 | 0.00 | 62 | 1022.8 |
| 20260905233344 | 25 | 121 | 0.0 | 3.2 | 0.00 | 0.00 | 0.00 | 63 | 1022.8 |
| 20260905232358 | 25 | 121 | 0.0 | 3.2 | 0.00 | 0.00 | 0.00 | 65 | 1022.9 |
| 20260905231352 | 25 | 121 | 0.0 | 3.2 | 0.00 | 0.00 | 0.00 | 64 | 1023.1 |
| 20260905230353 | 26 | 121 | 0.0 | 1.6 | 0.00 | 0.00 | 0.00 | 63 | 1023.1 |
| 20260905225348 | 26 | 121 | 0.0 | 0.0 | 0.00 | 0.00 | 0.00 | 62 | 1023.1 |
| 20260905224343 | 26 | 121 | 1.6 | 3.2 | 0.00 | 0.00 | 0.00 | 61 | 1023.1 |
| 20260905223343 | 26 | 121 | 0.0 | 1.6 | 0.00 | 0.00 | 0.00 | 60 | 1023.2 |
| 20260905222355 | 26 | 121 | 0.0 | 3.2 | 0.00 | 0.00 | 0.00 | 60 | 1023.2 |
| 20260905221355 | 26 | 121 | 0.0 | 3.2 | 0.00 | 0.00 | 0.00 | 60 | 1023.0 |
| 20260905220357 | 26 | 121 | 0.0 | 1.6 | 0.00 | 0.00 | 0.00 | 60 | 1023.1 |
| 20260905215349 | 26 | 121 | 0.0 | 3.2 | 0.00 | 0.00 | 0.00 | 60 | 1023.2 |
| 20260905214348 | 26 | 121 | 1.6 | 6.4 | 0.00 | 0.00 | 0.00 | 60 | 1023.2 |
| 20260905213350 | 26 | 121 | 4.8 | 6.4 | 0.00 | 0.00 | 0.00 | 59 | 1023.2 |
| 20260905212342 | 27 | 121 | 1.6 | 4.8 | 0.00 | 0.00 | 0.00 | 58 | 1023.2 |
| 20260905211342 | 27 | 121 | 3.2 | 6.4 | 0.00 | 0.00 | 0.00 | 57 | 1023.3 |
| 20260905210345 | 27 | 121 | 1.6 | 4.8 | 0.00 | 0.00 | 0.00 | 56 | 1023.4 |
| 20260905205402 | 27 | 121 | 3.2 | 6.4 | 0.00 | 0.00 | 0.00 | 55 | 1023.4 |
| 20260905204358 | 27 | 121 | 3.2 | 4.8 | 0.00 | 0.00 | 0.00 | 53 | 1023.4 |
| 20260905203353 | 27 | 121 | 3.2 | 4.8 | 0.00 | 0.00 | 0.00 | 53 | 1023.4 |
| 20260905202402 | 27 | 121 | 3.2 | 4.8 | 0.00 | 0.00 | 0.00 | 52 | 1023.5 |
| 20260905201356 | 28 | 121 | 0.0 | 0.0 | 0.00 | 0.00 | 0.00 | 52 | 1023.5 |
| 20260905200353 | 28 | 121 | 0.0 | 3.2 | 0.00 | 0.00 | 0.00 | 51 | 1023.4 |
| 20260905195358 | 28 | 121 | 0.0 | 6.4 | 0.00 | 0.00 | 0.00 | 49 | 1023.2 |
| 20260905194351 | 28 | 117 | 0.0 | 3.2 | 0.00 | 0.00 | 0.00 | 50 | 1023.3 |
| 20260905193344 | 28 | 117 | 1.6 | 6.4 | 0.00 | 0.00 | 0.00 | 51 | 1023.3 |
| 20260905192350 | 28 | 117 | 4.8 | 6.4 | 0.00 | 0.00 | 0.00 | 52 | 1023.3 |
| 20260905191351 | 28 | 118 | 0.0 | 3.2 | 0.00 | 0.00 | 0.00 | 59 | 1023.2 |
| 20260905190348 | 29 | 118 | 0.0 | 3.2 | 0.00 | 0.00 | 0.00 | 59 | 1023.2 |
| 20260905185354 | 29 | 118 | 0.0 | 1.6 | 0.00 | 0.00 | 0.00 | 58 | 1023.2 |
| 20260905184345 | 29 | 118 | 1.6 | 3.2 | 0.00 | 0.00 | 0.00 | 59 | 1023.1 |
| 20260905183403 | 29 | 118 | 4.8 | 6.4 | 0.00 | 0.00 | 0.00 | 59 | 1023.1 |
| 20260905182350 | 29 | 116 | 1.6 | 6.4 | 0.00 | 0.00 | 0.00 | 59 | 1023.0 |
| 20260905181402 | 29 | 115 | 3.2 | 8.0 | 0.00 | 0.00 | 0.00 | 58 | 1022.9 |
| 20260905180357 | 30 | 132 | 4.8 | 9.7 | 0.00 | 0.00 | 0.00 | 57 | 1022.8 |
| 20260905175351 | 30 | 137 | 4.8 | 9.7 | 0.00 | 0.00 | 0.00 | 54 | 1023.0 |
| 20260905174344 | 30 | 134 | 4.8 | 9.7 | 0.00 | 0.00 | 0.00 | 51 | 1022.9 |
| 20260905173401 | 30 | 154 | 4.8 | 9.7 | 0.00 | 0.00 | 0.00 | 51 | 1023.0 |
| 20260905172355 | 30 | 139 | 6.4 | 12.9 | 0.00 | 0.00 | 0.00 | 50 | 1022.9 |
| 20260905171346 | 30 | 123 | 8.0 | 14.5 | 0.00 | 0.00 | 0.00 | 49 | 1022.8 |
| 20260905165344 | 31 | 124 | 6.4 | 14.5 | 0.00 | 0.00 | 0.00 | 45 | 1022.8 |
| 20260905164355 | 31 | 130 | 8.0 | 17.7 | 0.00 | 0.00 | 0.00 | 41 | 1022.8 |
| 20260905163350 | 31 | 199 | 6.4 | 19.3 | 0.00 | 0.00 | 0.00 | 36 | 1022.8 |
| 20260905162347 | 32 | 111 | 8.0 | 16.1 | 0.00 | 0.00 | 0.00 | 35 | 1022.7 |
| 20260905161357 | 32 | 88 | 6.4 | 17.7 | 0.00 | 0.00 | 0.00 | 34 | 1022.8 |
| 20260905160348 | 32 | 135 | 3.2 | 16.1 | 0.00 | 0.00 | 0.00 | 36 | 1022.8 |
| 20260905155353 | 32 | 137 | 8.0 | 17.7 | 0.00 | 0.00 | 0.00 | 34 | 1022.7 |
| 20260905154402 | 31 | 124 | 11.3 | 19.3 | 0.00 | 0.00 | 0.00 | 34 | 1022.7 |
| 20260905153351 | 32 | 85 | 8.0 | 17.7 | 0.00 | 0.00 | 0.00 | 35 | 1022.8 |
| 20260905152343 | 32 | 108 | 8.0 | 22.5 | 0.00 | 0.00 | 0.00 | 33 | 1022.8 |
| 20260905151400 | 32 | 154 | 6.4 | 22.5 | 0.00 | 0.00 | 0.00 | 34 | 1023.0 |
| 20260905150348 | 32 | 221 | 3.2 | 17.7 | 0.00 | 0.00 | 0.00 | 35 | 1023.0 |
| 20260905145404 | 33 | 106 | 9.7 | 17.7 | 0.00 | 0.00 | 0.00 | 35 | 1023.0 |
| 20260905144352 | 32 | 117 | 3.2 | 17.7 | 0.00 | 0.00 | 0.00 | 36 | 1023.0 |
| 20260905143349 | 33 | 131 | 8.0 | 16.1 | 0.00 | 0.00 | 0.00 | 34 | 1023.2 |
| 20260905142402 | 33 | 88 | 8.0 | 20.9 | 0.00 | 0.00 | 0.00 | 33 | 1023.2 |
| 20260905141358 | 33 | 72 | 4.8 | 19.3 | 0.00 | 0.00 | 0.00 | 32 | 1023.1 |
| 20260905140359 | 33 | 147 | 8.0 | 19.3 | 0.00 | 0.00 | 0.00 | 32 | 1023.1 |
| 20260905135348 | 33 | 144 | 8.0 | 19.3 | 0.00 | 0.00 | 0.00 | 32 | 1023.0 |
| 20260905134342 | 33 | 129 | 6.4 | 20.9 | 0.00 | 0.00 | 0.00 | 31 | 1023.2 |
| 20260905133344 | 33 | 93 | 11.3 | 20.9 | 0.00 | 0.00 | 0.00 | 31 | 1023.3 |
| 20260905132401 | 33 | 90 | 4.8 | 19.3 | 0.00 | 0.00 | 0.00 | 30 | 1023.2 |
| 20260905131349 | 33 | 94 | 9.7 | 19.3 | 0.00 | 0.00 | 0.00 | 30 | 1023.3 |
| 20260905130351 | 33 | 130 | 11.3 | 20.9 | 0.00 | 0.00 | 0.00 | 29 | 1023.4 |
| 20260905125346 | 33 | 126 | 8.0 | 22.5 | 0.00 | 0.00 | 0.00 | 29 | 1023.4 |
| 20260905124359 | 34 | 108 | 8.0 | 20.9 | 0.00 | 0.00 | 0.00 | 28 | 1023.3 |
| 20260905123351 | 35 | 94 | 3.2 | 12.9 | 0.00 | 0.00 | 0.00 | 29 | 1023.4 |
| 20260905122342 | 34 | 105 | 8.0 | 20.9 | 0.00 | 0.00 | 0.00 | 29 | 1023.3 |
| 20260905121351 | 34 | 177 | 6.4 | 16.1 | 0.00 | 0.00 | 0.00 | 29 | 1023.5 |
| 20260905120350 | 34 | 229 | 6.4 | 17.7 | 0.00 | 0.00 | 0.00 | 29 | 1023.4 |
| 20260905115401 | 34 | 139 | 9.7 | 17.7 | 0.00 | 0.00 | 0.00 | 30 | 1023.5 |
| 20260905114352 | 34 | 141 | 6.4 | 16.1 | 0.00 | 0.00 | 0.00 | 29 | 1023.5 |
| 20260905113347 | 34 | 260 | 6.4 | 20.9 | 0.00 | 0.00 | 0.00 | 30 | 1023.6 |
| 20260905112342 | 34 | 142 | 11.3 | 20.9 | 0.00 | 0.00 | 0.00 | 30 | 1023.4 |
| 20260905111359 | 34 | 97 | 9.7 | 22.5 | 0.00 | 0.00 | 0.00 | 30 | 1023.3 |
| 20260905110351 | 34 | 107 | 8.0 | 19.3 | 0.00 | 0.00 | 0.00 | 30 | 1023.3 |
| 20260905105345 | 34 | 165 | 11.3 | 16.1 | 0.00 | 0.00 | 0.00 | 30 | 1023.3 |
| 20260905104401 | 34 | 66 | 1.6 | 20.9 | 0.00 | 0.00 | 0.00 | 31 | 1023.3 |
| 20260905103358 | 34 | 128 | 12.9 | 19.3 | 0.00 | 0.00 | 0.00 | 30 | 1023.4 |
| 20260905102343 | 34 | 94 | 4.8 | 19.3 | 0.00 | 0.00 | 0.00 | 31 | 1023.3 |
| 20260905101358 | 34 | 98 | 6.4 | 14.5 | 0.00 | 0.00 | 0.00 | 31 | 1023.4 |
| 20260905100354 | 33 | 80 | 4.8 | 14.5 | 0.00 | 0.00 | 0.00 | 34 | 1023.3 |
| 20260905095348 | 33 | 11 | 1.6 | 6.4 | 0.00 | 0.00 | 0.00 | 38 | 1023.2 |
| 20260905094402 | 32 | 10 | 0.0 | 4.8 | 0.00 | 0.00 | 0.00 | 41 | 1023.3 |
| 20260905093400 | 32 | 10 | 3.2 | 6.4 | 0.00 | 0.00 | 0.00 | 43 | 1023.3 |
| 20260905092348 | 31 | 18 | 0.0 | 3.2 | 0.00 | 0.00 | 0.00 | 45 | 1023.3 |
| 20260905091345 | 30 | 18 | 0.0 | 4.8 | 0.00 | 0.00 | 0.00 | 49 | 1023.2 |
| 20260905090401 | 30 | 21 | 0.0 | 4.8 | 0.00 | 0.00 | 0.00 | 52 | 1023.3 |
| 20260905085353 | 29 | 23 | 0.0 | 6.4 | 0.00 | 0.00 | 0.00 | 55 | 1023.1 |
| 20260905084344 | 28 | 28 | 0.0 | 4.8 | 0.00 | 0.00 | 0.00 | 56 | 1023.1 |
| 20260905083403 | 28 | 27 | 1.6 | 4.8 | 0.00 | 0.00 | 0.00 | 58 | 1023.0 |
| 20260905082355 | 27 | 31 | 0.0 | 4.8 | 0.00 | 0.00 | 0.00 | 60 | 1022.9 |
| 20260905081350 | 27 | 34 | 3.2 | 4.8 | 0.00 | 0.00 | 0.00 | 62 | 1023.0 |
| 20260905080350 | 26 | 33 | 0.0 | 4.8 | 0.00 | 0.00 | 0.00 | 64 | 1023.0 |
| 20260905075348 | 26 | 35 | 0.0 | 3.2 | 0.00 | 0.00 | 0.00 | 67 | 1022.9 |
| 20260905074347 | 26 | 35 | 0.0 | 4.8 | 0.00 | 0.00 | 0.00 | 69 | 1022.8 |
| 20260905073347 | 25 | 35 | 1.6 | 3.2 | 0.00 | 0.00 | 0.00 | 72 | 1022.8 |
| 20260905072401 | 25 | 35 | 0.0 | 3.2 | 0.00 | 0.00 | 0.00 | 74 | 1022.8 |
| 20260905071356 | 24 | 35 | 1.6 | 4.8 | 0.00 | 0.00 | 0.00 | 76 | 1022.8 |
| 20260905070359 | 23 | 35 | 0.0 | 4.8 | 0.00 | 0.00 | 0.00 | 79 | 1022.8 |
| 20260905065347 | 23 | 35 | 0.0 | 4.8 | 0.00 | 0.00 | 0.00 | 79 | 1022.6 |
| 20260905064350 | 23 | 35 | 1.6 | 4.8 | 0.00 | 0.00 | 0.00 | 81 | 1022.5 |
| 20260905063352 | 22 | 33 | 1.6 | 4.8 | 0.00 | 0.00 | 0.00 | 82 | 1022.5 |
| 20260905062347 | 22 | 33 | 1.6 | 3.2 | 0.00 | 0.00 | 0.00 | 82 | 1022.3 |
| 20260905061342 | 22 | 33 | 0.0 | 3.2 | 0.00 | 0.00 | 0.00 | 83 | 1022.2 |
| 20260905060342 | 22 | 32 | 0.0 | 6.4 | 0.00 | 0.00 | 0.00 | 84 | 1022.3 |
| 20260905055353 | 22 | 33 | 0.0 | 3.2 | 0.00 | 0.00 | 0.00 | 85 | 1022.2 |
| 20260905054350 | 22 | 33 | 0.0 | 0.0 | 0.00 | 0.00 | 0.00 | 85 | 1021.9 |
| 20260905053351 | 22 | 46 | 0.0 | 0.0 | 0.00 | 0.00 | 0.00 | 85 | 1021.8 |
| 20260905052342 | 22 | 46 | 0.0 | 0.0 | 0.00 | 0.00 | 0.00 | 85 | 1021.9 |
| 20260905051344 | 22 | 46 | 0.0 | 0.0 | 0.00 | 0.00 | 0.00 | 84 | 1021.6 |
| 20260905050357 | 22 | 46 | 0.0 | 0.0 | 0.00 | 0.00 | 0.00 | 84 | 1021.6 |
| 20260905045355 | 22 | 46 | 0.0 | 0.0 | 0.00 | 0.00 | 0.00 | 84 | 1021.6 |
| 20260905044357 | 22 | 46 | 0.0 | 0.0 | 0.00 | 0.00 | 0.00 | 84 | 1021.6 |
| 20260905043341 | 23 | 46 | 0.0 | 0.0 | 0.00 | 0.00 | 0.00 | 84 | 1021.6 |
| 20260905042358 | 23 | 46 | 0.0 | 0.0 | 0.00 | 0.00 | 0.00 | 84 | 1021.4 |
| 20260905041355 | 23 | 46 | 0.0 | 0.0 | 0.00 | 0.00 | 0.00 | 83 | 1021.5 |
| 20260905040356 | 23 | 46 | 0.0 | 0.0 | 0.00 | 0.00 | 0.00 | 83 | 1021.4 |
| 20260905035347 | 23 | 46 | 0.0 | 0.0 | 0.00 | 0.00 | 0.00 | 83 | 1021.4 |
| 20260905034347 | 23 | 46 | 0.0 | 4.8 | 0.00 | 0.00 | 0.00 | 83 | 1021.5 |
| 20260905033349 | 23 | 46 | 3.2 | 4.8 | 0.00 | 0.00 | 0.00 | 83 | 1021.3 |
| 20260905032347 | 23 | 48 | 0.0 | 3.2 | 0.00 | 0.00 | 0.00 | 83 | 1021.3 |
| 20260905031348 | 23 | 48 | 0.0 | 3.2 | 0.00 | 0.00 | 0.00 | 83 | 1021.2 |
| 20260905030350 | 23 | 47 | 0.0 | 3.2 | 0.00 | 0.00 | 0.00 | 82 | 1021.3 |
| 20260905025344 | 23 | 47 | 3.2 | 6.4 | 0.00 | 0.00 | 0.00 | 82 | 1021.4 |
| 20260905024343 | 23 | 119 | 3.2 | 6.4 | 0.00 | 0.00 | 0.00 | 81 | 1021.3 |
| 20260905023345 | 23 | 125 | 0.0 | 4.8 | 0.00 | 0.00 | 0.00 | 82 | 1021.2 |
| 20260905022340 | 24 | 126 | 0.0 | 1.6 | 0.00 | 0.00 | 0.00 | 82 | 1021.3 |
| 20260905021357 | 24 | 126 | 0.0 | 3.2 | 0.00 | 0.00 | 0.00 | 81 | 1021.3 |
| 20260905020359 | 24 | 126 | 1.6 | 3.2 | 0.00 | 0.00 | 0.00 | 81 | 1021.4 |
| 20260905015350 | 24 | 126 | 0.0 | 0.0 | 0.00 | 0.00 | 0.00 | 81 | 1021.3 |
| 20260905014346 | 25 | 127 | 0.0 | 0.0 | 0.00 | 0.00 | 0.00 | 81 | 1021.3 |
| 20260905013346 | 25 | 126 | 0.0 | 0.0 | 0.00 | 0.00 | 0.00 | 81 | 1021.3 |